ITUPSAT1

Last updated on Mon Nov 03 2025 00:03:21 GMT+0000 (Coordinated Universal Time)

1 35935U 09051E 25306.21844505 .00001320 00000+0 28593-3 0 9990 2 35935 98.4161 204.5824 0006511 216.2477 143.8282 14.59887041855613
UTC large
Height (km)
Speed (km/s)
/
Latitude / Longitude
Inclination (degrees)
Orbital Period (minutes)
Azimuth
Elevation
Range (km)
Doppler Factor

Next 0 passes for location: London (51.5072 / 0.1276)

Sorry there are no passes over London.